Time,TemperatureF,DewpointF,PressureIn,WindDirection,WindDirectionDegrees,WindSpeedMPH,WindSpeedGustMPH,Humidity,HourlyPrecipIn,Conditions,Clouds,dailyrainin,SoftwareType,DateUTC
2013-10-27 00:04:00,61.0,50.7,30.20,South,180,0.0,0.0,69,0.00,CLR,,0.00,WeatherDisplay:10.37,2013-10-26 13:04:00,
2013-10-27 00:09:00,61.0,50.7,30.19,South,174,0.0,0.0,69,0.00,CLR,,0.00,WeatherDisplay:10.37,2013-10-26 13:09:00,
2013-10-27 00:14:00,61.0,50.7,30.19,SSE,163,0.0,0.0,69,0.00,CLR,,0.00,WeatherDisplay:10.37,2013-10-26 13:14:00,
2013-10-27 00:19:00,60.6,50.4,30.19,SSE,168,0.0,0.0,69,0.00,CLR,,0.00,WeatherDisplay:10.37,2013-10-26 13:19:00,
2013-10-27 00:24:00,60.6,50.8,30.20,SSE,168,0.0,0.0,70,0.00,CLR,,0.00,WeatherDisplay:10.37,2013-10-26 13:24:00,
2013-10-27 00:29:00,60.6,50.8,30.20,SSE,154,0.0,0.0,70,0.00,CLR,,0.00,WeatherDisplay:10.37,2013-10-26 13:29:00,
2013-10-27 00:34:00,60.6,50.8,30.20,SSE,160,0.0,1.0,70,0.00,CLR,,0.00,WeatherDisplay:10.37,2013-10-26 13:34:00,
2013-10-27 00:39:00,60.6,50.8,30.19,South,188,0.0,1.0,70,0.00,CLR,,0.00,WeatherDisplay:10.37,2013-10-26 13:39:00,
2013-10-27 00:44:00,61.0,51.1,30.20,SSW,212,0.0,0.0,70,0.00,CLR,,0.00,WeatherDisplay:10.37,2013-10-26 13:44:00,
2013-10-27 00:49:00,61.0,51.1,30.19,WSW,249,0.0,1.0,70,0.00,CLR,,0.00,WeatherDisplay:10.37,2013-10-26 13:49:00,
2013-10-27 00:54:00,61.2,51.7,30.19,East,96,0.0,1.0,71,0.00,CLR,,0.00,WeatherDisplay:10.37,2013-10-26 13:54:00,
2013-10-27 00:59:00,61.0,51.5,30.19,South,190,0.0,1.0,71,0.00,CLR,,0.00,WeatherDisplay:10.37,2013-10-26 13:59:00,
2013-10-27 01:04:00,61.0,51.5,30.19,WSW,242,0.0,1.0,71,0.00,CLR,,0.00,WeatherDisplay:10.37,2013-10-26 14:04:00,
2013-10-27 01:09:00,60.7,51.3,30.19,WSW,249,0.0,0.0,71,0.00,CLR,,0.00,WeatherDisplay:10.37,2013-10-26 14:09:00,
2013-10-27 01:14:00,60.6,51.5,30.19,WSW,248,0.0,0.0,72,0.00,CLR,,0.00,WeatherDisplay:10.37,2013-10-26 14:14:00,
2013-10-27 01:19:00,61.0,51.9,30.19,WSW,248,0.0,0.0,72,0.00,CLR,,0.00,WeatherDisplay:10.37,2013-10-26 14:19:00,
2013-10-27 01:24:00,61.2,52.1,30.19,WSW,248,0.0,0.0,72,0.00,CLR,,0.00,WeatherDisplay:10.37,2013-10-26 14:24:00,
2013-10-27 01:29:00,61.2,52.1,30.18,West,263,0.0,0.0,72,0.00,CLR,,0.00,WeatherDisplay:10.37,2013-10-26 14:29:00,
2013-10-27 01:34:00,61.2,52.1,30.18,WNW,288,0.0,1.0,72,0.00,CLR,,0.00,WeatherDisplay:10.37,2013-10-26 14:34:00,
2013-10-27 01:39:00,61.2,52.1,30.18,WSW,252,0.0,1.0,72,0.00,CLR,,0.00,WeatherDisplay:10.37,2013-10-26 14:39:00,
2013-10-27 01:44:00,61.2,52.1,30.18,SSW,209,0.0,0.0,72,0.00,CLR,,0.00,WeatherDisplay:10.37,2013-10-26 14:44:00,
2013-10-27 01:49:00,61.2,52.1,30.18,SW,220,0.0,0.0,72,0.00,CLR,,0.00,WeatherDisplay:10.37,2013-10-26 14:49:00,
2013-10-27 01:54:00,61.3,51.8,30.18,SW,225,0.0,0.0,71,0.00,CLR,,0.00,WeatherDisplay:10.37,2013-10-26 14:54:00,
2013-10-27 01:59:00,61.2,52.1,30.18,SW,225,0.0,0.0,72,0.00,CLR,,0.00,WeatherDisplay:10.37,2013-10-26 14:59:00,
2013-10-27 02:04:00,61.2,52.1,30.18,WSW,239,0.0,0.0,72,0.00,CLR,,0.00,WeatherDisplay:10.37,2013-10-26 15:04:00,
2013-10-27 02:09:00,61.1,52.0,30.18,West,271,0.0,0.0,72,0.00,CLR,,0.00,WeatherDisplay:10.37,2013-10-26 15:09:00,
2013-10-27 02:14:00,61.0,51.9,30.18,NW,308,0.0,0.0,72,0.00,CLR,,0.00,WeatherDisplay:10.37,2013-10-26 15:14:00,
2013-10-27 02:19:00,61.0,51.9,30.18,NW,326,0.0,0.0,72,0.00,CLR,,0.00,WeatherDisplay:10.37,2013-10-26 15:19:00,
2013-10-27 02:24:00,61.0,52.3,30.18,NNW,335,0.0,0.0,73,0.00,CLR,,0.00,WeatherDisplay:10.37,2013-10-26 15:24:00,
2013-10-27 02:29:00,61.1,52.4,30.18,NNW,338,0.0,0.0,73,0.00,CLR,,0.00,WeatherDisplay:10.37,2013-10-26 15:29:00,
2013-10-27 02:34:00,61.0,52.3,30.17,NW,326,0.0,0.0,73,0.00,CLR,,0.00,WeatherDisplay:10.37,2013-10-26 15:34:00,
2013-10-27 02:39:00,61.0,52.3,30.17,West,271,0.0,0.0,73,0.00,CLR,,0.00,WeatherDisplay:10.37,2013-10-26 15:39:00,
2013-10-27 02:44:00,61.0,52.3,30.17,South,179,0.0,0.0,73,0.00,CLR,,0.00,WeatherDisplay:10.37,2013-10-26 15:44:00,
2013-10-27 02:49:00,61.0,52.3,30.17,SSE,162,0.0,0.0,73,0.00,CLR,,0.00,WeatherDisplay:10.37,2013-10-26 15:49:00,
2013-10-27 02:54:00,60.8,52.1,30.17,SSW,213,0.0,0.0,73,0.00,CLR,,0.00,WeatherDisplay:10.37,2013-10-26 15:54:00,
2013-10-27 02:59:00,60.8,52.1,30.16,West,272,0.0,0.0,73,0.00,CLR,,0.00,WeatherDisplay:10.37,2013-10-26 15:59:00,
2013-10-27 03:04:00,61.0,52.3,30.16,SSW,205,0.0,0.0,73,0.00,CLR,,0.00,WeatherDisplay:10.37,2013-10-26 16:04:00,
2013-10-27 03:09:00,60.6,51.9,30.16,SSE,149,0.0,0.0,73,0.00,CLR,,0.00,WeatherDisplay:10.37,2013-10-26 16:09:00,
2013-10-27 03:14:00,60.6,51.9,30.16,ESE,108,0.0,0.0,73,0.00,CLR,,0.00,WeatherDisplay:10.37,2013-10-26 16:14:00,
2013-10-27 03:19:00,60.4,51.7,30.16,NE,38,0.0,0.0,73,0.00,CLR,,0.00,WeatherDisplay:10.37,2013-10-26 16:19:00,
2013-10-27 03:24:00,60.4,51.7,30.16,ENE,68,0.0,0.0,73,0.00,CLR,,0.00,WeatherDisplay:10.37,2013-10-26 16:24:00,
2013-10-27 03:29:00,60.4,51.7,30.16,SSE,150,0.0,0.0,73,0.00,CLR,,0.00,WeatherDisplay:10.37,2013-10-26 16:29:00,
2013-10-27 03:34:00,60.1,51.8,30.16,SSW,194,0.0,0.0,74,0.00,CLR,,0.00,WeatherDisplay:10.37,2013-10-26 16:34:00,
2013-10-27 03:39:00,60.3,51.9,30.16,SSW,202,0.0,0.0,74,0.00,CLR,,0.00,WeatherDisplay:10.37,2013-10-26 16:39:00,
2013-10-27 03:44:00,60.1,51.8,30.16,SSW,199,0.0,0.0,74,0.00,CLR,,0.00,WeatherDisplay:10.37,2013-10-26 16:44:00,
2013-10-27 03:49:00,59.9,51.6,30.15,South,174,0.0,0.0,74,0.00,CLR,,0.00,WeatherDisplay:10.37,2013-10-26 16:49:00,
2013-10-27 03:54:00,59.7,51.4,30.15,SSE,158,0.0,0.0,74,0.00,CLR,,0.00,WeatherDisplay:10.37,2013-10-26 16:54:00,
2013-10-27 03:59:00,59.5,51.2,30.15,SSE,158,0.0,0.0,74,0.00,CLR,,0.00,WeatherDisplay:10.37,2013-10-26 16:59:00,
2013-10-27 04:04:00,59.5,51.2,30.16,SSE,158,0.0,0.0,74,0.00,CLR,,0.00,WeatherDisplay:10.37,2013-10-26 17:04:00,
2013-10-27 04:09:00,59.5,51.2,30.16,SSE,152,0.0,0.0,74,0.00,CLR,,0.00,WeatherDisplay:10.37,2013-10-26 17:09:00,
2013-10-27 04:14:00,59.5,51.2,30.16,East,80,0.0,1.0,74,0.00,CLR,,0.00,WeatherDisplay:10.37,2013-10-26 17:14:00,
2013-10-27 04:19:00,59.4,51.4,30.15,North,360,0.0,1.0,75,0.00,CLR,,0.00,WeatherDisplay:10.37,2013-10-26 17:19:00,
2013-10-27 04:24:00,59.2,51.3,30.15,NW,317,0.0,0.0,75,0.00,CLR,,0.00,WeatherDisplay:10.37,2013-10-26 17:24:00,
2013-10-27 04:29:00,59.4,51.4,30.15,West,262,0.0,0.0,75,0.00,CLR,,0.00,WeatherDisplay:10.37,2013-10-26 17:29:00,
2013-10-27 04:34:00,59.4,51.4,30.15,SSW,195,0.0,0.0,75,0.00,CLR,,0.00,WeatherDisplay:10.37,2013-10-26 17:34:00,
2013-10-27 04:39:00,59.3,51.4,30.15,South,177,0.0,0.0,75,0.00,CLR,,0.00,WeatherDisplay:10.37,2013-10-26 17:39:00,
2013-10-27 04:44:00,59.2,51.3,30.15,SSE,161,0.0,0.0,75,0.00,CLR,,0.00,WeatherDisplay:10.37,2013-10-26 17:44:00,
2013-10-27 04:49:00,58.9,51.0,30.15,South,172,0.0,0.0,75,0.00,CLR,,0.00,WeatherDisplay:10.37,2013-10-26 17:49:00,
2013-10-27 04:54:00,58.8,50.9,30.15,SSW,196,0.0,0.0,75,0.00,CLR,,0.00,WeatherDisplay:10.37,2013-10-26 17:54:00,
2013-10-27 04:59:00,58.8,50.9,30.15,SSW,202,0.0,0.0,75,0.00,CLR,,0.00,WeatherDisplay:10.37,2013-10-26 17:59:00,
2013-10-27 05:04:00,58.6,50.7,30.16,SSW,202,0.0,0.0,75,0.00,CLR,,0.00,WeatherDisplay:10.37,2013-10-26 18:04:00,
2013-10-27 05:09:00,58.6,50.4,30.16,SSW,193,0.0,0.0,74,0.00,CLR,,0.00,WeatherDisplay:10.37,2013-10-26 18:09:00,
2013-10-27 05:14:00,58.5,50.6,30.15,NE,42,0.0,2.0,75,0.00,CLR,,0.00,WeatherDisplay:10.37,2013-10-26 18:14:00,
2013-10-27 05:19:00,58.2,50.3,30.16,North,10,0.0,1.0,75,0.00,CLR,,0.00,WeatherDisplay:10.37,2013-10-26 18:19:00,
2013-10-27 05:24:00,58.1,49.9,30.16,NW,305,0.0,0.0,74,0.00,CLR,,0.00,WeatherDisplay:10.37,2013-10-26 18:24:00,
2013-10-27 05:29:00,57.9,50.1,30.16,WSW,252,0.0,0.0,75,0.00,CLR,,0.00,WeatherDisplay:10.37,2013-10-26 18:29:00,
2013-10-27 05:34:00,57.9,50.0,30.16,SW,217,0.0,0.0,75,0.00,CLR,,0.00,WeatherDisplay:10.37,2013-10-26 18:34:00,
2013-10-27 05:39:00,57.7,49.8,30.16,SW,215,0.0,0.0,75,0.00,CLR,,0.00,WeatherDisplay:10.37,2013-10-26 18:39:00,
2013-10-27 05:44:00,57.4,49.5,30.16,WNW,300,0.0,0.0,75,0.00,CLR,,0.00,WeatherDisplay:10.37,2013-10-26 18:44:00,
2013-10-27 05:49:00,57.4,49.5,30.17,WNW,298,0.0,1.0,75,0.00,CLR,,0.00,WeatherDisplay:10.37,2013-10-26 18:49:00,
2013-10-27 05:54:00,57.4,49.5,30.17,WNW,287,0.0,1.0,75,0.00,CLR,,0.00,WeatherDisplay:10.37,2013-10-26 18:54:00,
2013-10-27 05:59:00,57.4,49.5,30.17,North,3,0.0,1.0,75,0.00,CLR,,0.00,WeatherDisplay:10.37,2013-10-26 18:59:00,
2013-10-27 06:04:00,57.4,49.5,30.17,WNW,299,0.0,0.0,75,0.00,CLR,,0.00,WeatherDisplay:10.37,2013-10-26 19:04:00,
2013-10-27 06:09:00,57.1,49.2,30.17,WSW,242,0.0,0.0,75,0.00,CLR,,0.00,WeatherDisplay:10.37,2013-10-26 19:09:00,
2013-10-27 06:14:00,57.0,49.2,30.17,SSW,211,0.0,0.0,75,0.00,CLR,,0.00,WeatherDisplay:10.37,2013-10-26 19:14:00,
2013-10-27 06:19:00,57.0,49.2,30.17,South,191,0.0,0.0,75,0.00,CLR,,0.00,WeatherDisplay:10.37,2013-10-26 19:19:00,
2013-10-27 06:24:00,57.0,49.2,30.17,ESE,111,0.0,0.0,75,0.00,CLR,,0.00,WeatherDisplay:10.37,2013-10-26 19:24:00,
2013-10-27 06:29:00,57.0,49.2,30.17,NNE,33,0.0,0.0,75,0.00,CLR,,0.00,WeatherDisplay:10.37,2013-10-26 19:29:00,
2013-10-27 06:34:00,57.0,49.5,30.17,NNE,12,0.0,1.0,76,0.00,CLR,,0.00,WeatherDisplay:10.37,2013-10-26 19:34:00,
2013-10-27 06:39:00,57.0,49.5,30.17,North,10,0.0,1.0,76,0.00,CLR,,0.00,WeatherDisplay:10.37,2013-10-26 19:39:00,
2013-10-27 06:44:00,57.0,49.5,30.17,NNE,16,0.0,1.0,76,0.00,CLR,,0.00,WeatherDisplay:10.37,2013-10-26 19:44:00,
2013-10-27 06:49:00,57.0,49.5,30.17,NNE,12,0.0,1.0,76,0.00,CLR,,0.00,WeatherDisplay:10.37,2013-10-26 19:49:00,
2013-10-27 06:54:00,57.4,50.2,30.17,North,8,0.0,0.0,77,0.00,CLR,,0.00,WeatherDisplay:10.37,2013-10-26 19:54:00,
2013-10-27 06:59:00,57.4,49.9,30.17,SSW,206,0.0,1.0,76,0.00,CLR,,0.00,WeatherDisplay:10.37,2013-10-26 19:59:00,
2013-10-27 07:04:00,57.5,50.0,30.17,SSW,192,0.0,2.0,76,0.00,CLR,,0.00,WeatherDisplay:10.37,2013-10-26 20:04:00,
2013-10-27 07:09:00,57.4,49.9,30.18,South,185,0.0,1.0,76,0.00,CLR,,0.00,WeatherDisplay:10.37,2013-10-26 20:09:00,
2013-10-27 07:14:00,57.6,50.4,30.18,South,183,0.0,1.0,77,0.00,CLR,,0.00,WeatherDisplay:10.37,2013-10-26 20:14:00,
2013-10-27 07:19:00,57.7,50.6,30.18,SSE,167,0.0,0.0,77,0.00,CLR,,0.00,WeatherDisplay:10.37,2013-10-26 20:19:00,
2013-10-27 07:24:00,57.9,50.7,30.18,SSE,152,0.0,0.0,77,0.00,CLR,,0.00,WeatherDisplay:10.37,2013-10-26 20:24:00,
2013-10-27 07:29:00,57.9,50.8,30.18,ESE,107,0.0,0.0,77,0.00,CLR,,0.00,WeatherDisplay:10.37,2013-10-26 20:29:00,
2013-10-27 07:34:00,58.3,51.4,30.18,NE,54,0.0,1.0,78,0.00,CLR,,0.00,WeatherDisplay:10.37,2013-10-26 20:34:00,
2013-10-27 07:39:00,58.6,51.8,30.19,North,6,0.0,1.0,78,0.00,CLR,,0.00,WeatherDisplay:10.37,2013-10-26 20:39:00,
2013-10-27 07:44:00,58.8,52.0,30.19,NNW,330,0.0,1.0,78,0.00,CLR,,0.00,WeatherDisplay:10.37,2013-10-26 20:44:00,
2013-10-27 07:49:00,59.0,51.8,30.19,SSW,196,0.0,1.0,77,0.00,CLR,,0.00,WeatherDisplay:10.37,2013-10-26 20:49:00,
2013-10-27 07:54:00,59.4,52.5,30.19,South,169,0.0,1.0,78,0.00,CLR,,0.00,WeatherDisplay:10.37,2013-10-26 20:54:00,
2013-10-27 07:59:00,59.5,52.7,30.19,South,180,1.0,2.0,78,0.00,CLR,,0.00,WeatherDisplay:10.37,2013-10-26 20:59:00,
2013-10-27 08:04:00,59.9,52.7,30.19,South,177,1.0,1.0,77,0.00,CLR,,0.00,WeatherDisplay:10.37,2013-10-26 21:04:00,
2013-10-27 08:09:00,60.1,52.8,30.19,SSE,161,0.0,2.0,77,0.00,CLR,,0.00,WeatherDisplay:10.37,2013-10-26 21:09:00,
2013-10-27 08:14:00,60.4,52.8,30.19,South,180,0.0,1.0,76,0.00,CLR,,0.00,WeatherDisplay:10.37,2013-10-26 21:14:00,
2013-10-27 08:19:00,60.6,53.0,30.19,South,177,0.0,2.0,76,0.00,CLR,,0.00,WeatherDisplay:10.37,2013-10-26 21:19:00,
2013-10-27 08:24:00,61.0,53.4,30.19,SSW,192,0.0,1.0,76,0.00,CLR,,0.00,WeatherDisplay:10.37,2013-10-26 21:24:00,
2013-10-27 08:29:00,61.3,53.7,30.19,ESE,122,3.0,5.0,76,0.00,CLR,,0.00,WeatherDisplay:10.37,2013-10-26 21:29:00,
2013-10-27 08:34:00,61.7,53.7,30.18,ESE,106,2.0,5.0,75,0.00,CLR,,0.00,WeatherDisplay:10.37,2013-10-26 21:34:00,
2013-10-27 08:39:00,62.4,54.0,30.18,NE,46,2.0,6.0,74,0.00,CLR,,0.00,WeatherDisplay:10.37,2013-10-26 21:39:00,
2013-10-27 08:44:00,63.1,54.0,30.18,NE,40,1.0,5.0,72,0.00,CLR,,0.00,WeatherDisplay:10.37,2013-10-26 21:44:00,
2013-10-27 08:49:00,63.4,53.5,30.18,NE,36,2.0,7.0,70,0.00,CLR,,0.00,WeatherDisplay:10.37,2013-10-26 21:49:00,
2013-10-27 08:54:00,63.7,53.3,30.18,NNE,16,1.0,6.0,69,0.00,CLR,,0.00,WeatherDisplay:10.37,2013-10-26 21:54:00,
2013-10-27 08:59:00,64.0,53.3,30.18,NNE,32,1.0,5.0,68,0.00,CLR,,0.00,WeatherDisplay:10.37,2013-10-26 21:59:00,
2013-10-27 09:04:00,64.3,53.1,30.18,NNE,26,3.0,8.0,67,0.00,CLR,,0.00,WeatherDisplay:10.37,2013-10-26 22:04:00,
2013-10-27 09:09:00,64.5,52.9,30.18,North,7,2.0,8.0,66,0.00,CLR,,0.00,WeatherDisplay:10.37,2013-10-26 22:09:00,
2013-10-27 09:19:00,64.6,52.5,30.18,East,80,0.0,5.0,65,0.00,CLR,,0.00,WeatherDisplay:10.37,2013-10-26 22:19:00,
2013-10-27 09:24:00,64.9,53.3,30.19,NNE,25,2.0,5.0,66,0.00,CLR,,0.00,WeatherDisplay:10.37,2013-10-26 22:24:00,
2013-10-27 09:29:00,65.1,53.1,30.19,NNW,346,2.0,7.0,65,0.00,CLR,,0.00,WeatherDisplay:10.37,2013-10-26 22:29:00,
2013-10-27 09:34:00,65.5,53.4,30.19,NNE,20,2.0,8.0,65,0.00,CLR,,0.00,WeatherDisplay:10.37,2013-10-26 22:34:00,
2013-10-27 09:39:00,65.8,53.3,30.19,NNW,341,2.0,5.0,64,0.00,CLR,,0.00,WeatherDisplay:10.37,2013-10-26 22:39:00,
2013-10-27 09:44:00,65.8,53.3,30.19,NNW,342,2.0,6.0,64,0.00,CLR,,0.00,WeatherDisplay:10.37,2013-10-26 22:44:00,
2013-10-27 09:49:00,66.0,53.5,30.19,NE,53,1.0,5.0,64,0.00,CLR,,0.00,WeatherDisplay:10.37,2013-10-26 22:49:00,
2013-10-27 09:54:00,66.3,53.7,30.19,NNE,19,2.0,6.0,64,0.00,CLR,,0.00,WeatherDisplay:10.37,2013-10-26 22:54:00,
2013-10-27 09:59:00,66.7,53.7,30.18,NE,37,3.0,7.0,63,0.00,CLR,,0.00,WeatherDisplay:10.37,2013-10-26 22:59:00,
2013-10-27 10:04:00,66.9,53.5,30.19,NNE,26,2.0,7.0,62,0.00,CLR,,0.00,WeatherDisplay:10.37,2013-10-26 23:04:00,
2013-10-27 10:09:00,67.6,53.6,30.19,North,10,5.0,8.0,61,0.00,CLR,,0.00,WeatherDisplay:10.37,2013-10-26 23:09:00,
2013-10-27 10:14:00,67.9,53.0,30.19,NE,47,5.0,9.0,59,0.00,CLR,,0.00,WeatherDisplay:10.37,2013-10-26 23:14:00,
2013-10-27 10:19:00,68.1,53.2,30.19,ENE,61,5.0,10.0,59,0.00,CLR,,0.00,WeatherDisplay:10.37,2013-10-26 23:19:00,
2013-10-27 10:24:00,68.2,53.3,30.18,ENE,59,2.0,7.0,59,0.00,CLR,,0.00,WeatherDisplay:10.37,2013-10-26 23:24:00,
2013-10-27 10:29:00,68.5,52.7,30.18,NE,41,1.0,10.0,57,0.00,CLR,,0.00,WeatherDisplay:10.37,2013-10-26 23:29:00,
2013-10-27 10:34:00,68.5,52.7,30.18,NE,47,3.0,9.0,57,0.00,CLR,,0.00,WeatherDisplay:10.37,2013-10-26 23:34:00,
2013-10-27 10:39:00,68.9,53.0,30.17,NE,53,3.0,10.0,57,0.00,CLR,,0.00,WeatherDisplay:10.37,2013-10-26 23:39:00,
2013-10-27 10:44:00,69.1,52.2,30.18,NE,36,5.0,7.0,55,0.00,CLR,,0.00,WeatherDisplay:10.37,2013-10-26 23:44:00,
2013-10-27 10:49:00,69.4,52.6,30.17,ENE,64,5.0,9.0,55,0.00,CLR,,0.00,WeatherDisplay:10.37,2013-10-26 23:49:00,
2013-10-27 10:54:00,69.4,51.0,30.17,ENE,57,5.0,11.0,52,0.00,CLR,,0.00,WeatherDisplay:10.37,2013-10-26 23:54:00,
2013-10-27 10:59:00,69.6,51.7,30.17,NNE,26,3.0,10.0,53,0.00,CLR,,0.00,WeatherDisplay:10.37,2013-10-26 23:59:00,
2013-10-27 11:04:00,69.9,51.5,30.17,North,7,2.0,9.0,52,0.00,CLR,,0.00,WeatherDisplay:10.37,2013-10-27 00:04:00,
2013-10-27 11:09:00,70.1,51.6,30.17,NW,312,3.0,8.0,52,0.00,CLR,,0.00,WeatherDisplay:10.37,2013-10-27 00:09:00,
2013-10-27 11:14:00,70.2,51.2,30.17,NNW,345,2.0,5.0,51,0.00,CLR,,0.00,WeatherDisplay:10.37,2013-10-27 00:14:00,
2013-10-27 11:19:00,70.5,49.8,30.16,NE,45,5.0,7.0,48,0.00,CLR,,0.00,WeatherDisplay:10.37,2013-10-27 00:19:00,
2013-10-27 11:24:00,70.7,49.5,30.16,ENE,77,5.0,7.0,47,0.00,CLR,,0.00,WeatherDisplay:10.37,2013-10-27 00:24:00,
2013-10-27 11:29:00,71.0,49.7,30.16,SE,128,3.0,9.0,47,0.00,CLR,,0.00,WeatherDisplay:10.37,2013-10-27 00:29:00,
2013-10-27 11:34:00,70.9,49.6,30.15,SE,135,1.0,8.0,47,0.00,CLR,,0.00,WeatherDisplay:10.37,2013-10-27 00:34:00,
2013-10-27 11:39:00,70.9,49.1,30.15,NE,53,3.0,9.0,46,0.00,CLR,,0.00,WeatherDisplay:10.37,2013-10-27 00:39:00,
2013-10-27 11:44:00,71.4,48.4,30.15,North,349,2.0,10.0,44,0.00,CLR,,0.00,WeatherDisplay:10.37,2013-10-27 00:44:00,
2013-10-27 11:49:00,72.0,48.9,30.15,NE,54,3.0,8.0,44,0.00,CLR,,0.00,WeatherDisplay:10.37,2013-10-27 00:49:00,
2013-10-27 11:54:00,72.2,49.6,30.14,ENE,67,2.0,3.0,45,0.00,CLR,,0.00,WeatherDisplay:10.37,2013-10-27 00:54:00,
2013-10-27 11:59:00,72.3,49.2,30.15,West,278,5.0,12.0,44,0.00,CLR,,0.00,WeatherDisplay:10.37,2013-10-27 00:59:00,
2013-10-27 12:04:00,72.7,48.3,30.15,NNW,345,6.0,11.0,42,0.00,CLR,,0.00,WeatherDisplay:10.37,2013-10-27 01:04:00,
2013-10-27 12:09:00,72.1,47.8,30.14,NNE,14,2.0,6.0,42,0.00,CLR,,0.00,WeatherDisplay:10.37,2013-10-27 01:09:00,
2013-10-27 12:14:00,72.5,48.1,30.14,NNE,19,2.0,10.0,42,0.00,CLR,,0.00,WeatherDisplay:10.37,2013-10-27 01:14:00,
2013-10-27 12:19:00,72.6,47.5,30.14,ENE,63,3.0,7.0,41,0.00,CLR,,0.00,WeatherDisplay:10.37,2013-10-27 01:19:00,
2013-10-27 12:24:00,72.4,47.4,30.14,ENE,71,0.0,8.0,41,0.00,CLR,,0.00,WeatherDisplay:10.37,2013-10-27 01:24:00,
2013-10-27 12:29:00,72.4,47.4,30.13,East,91,3.0,7.0,41,0.00,CLR,,0.00,WeatherDisplay:10.37,2013-10-27 01:29:00,
2013-10-27 12:34:00,72.3,49.8,30.12,ESE,114,6.0,8.0,45,0.00,CLR,,0.00,WeatherDisplay:10.37,2013-10-27 01:34:00,
2013-10-27 12:39:00,72.3,50.4,30.12,East,91,3.0,8.0,46,0.00,CLR,,0.00,WeatherDisplay:10.37,2013-10-27 01:39:00,
2013-10-27 12:44:00,72.4,51.6,30.12,ENE,74,5.0,11.0,48,0.00,CLR,,0.00,WeatherDisplay:10.37,2013-10-27 01:44:00,
2013-10-27 12:49:00,72.1,51.9,30.12,East,101,7.0,9.0,49,0.00,CLR,,0.00,WeatherDisplay:10.37,2013-10-27 01:49:00,
2013-10-27 12:59:00,72.5,52.8,30.12,SE,131,6.0,12.0,50,0.00,CLR,,0.00,WeatherDisplay:10.37,2013-10-27 01:59:00,
2013-10-27 13:04:00,72.7,53.0,30.12,SE,136,6.0,12.0,50,0.00,CLR,,0.00,WeatherDisplay:10.37,2013-10-27 02:04:00,
2013-10-27 13:09:00,72.9,52.6,30.11,SE,135,6.0,12.0,49,0.00,CLR,,0.00,WeatherDisplay:10.37,2013-10-27 02:09:00,
2013-10-27 13:14:00,72.7,53.0,30.11,SE,132,7.0,14.0,50,0.00,CLR,,0.00,WeatherDisplay:10.37,2013-10-27 02:14:00,
2013-10-27 13:19:00,72.5,52.8,30.11,SE,125,7.0,14.0,50,0.00,CLR,,0.00,WeatherDisplay:10.37,2013-10-27 02:19:00,
2013-10-27 13:24:00,72.2,53.0,30.11,ESE,114,7.0,15.0,51,0.00,CLR,,0.00,WeatherDisplay:10.37,2013-10-27 02:24:00,
2013-10-27 13:29:00,72.1,53.5,30.11,ESE,123,9.0,12.0,52,0.00,CLR,,0.00,WeatherDisplay:10.37,2013-10-27 02:29:00,
2013-10-27 13:34:00,72.1,53.0,30.11,ESE,113,5.0,14.0,51,0.00,CLR,,0.00,WeatherDisplay:10.37,2013-10-27 02:34:00,
2013-10-27 13:39:00,72.3,53.7,30.10,East,100,7.0,14.0,52,0.00,CLR,,0.00,WeatherDisplay:10.37,2013-10-27 02:39:00,
2013-10-27 13:44:00,72.7,54.0,30.11,ESE,106,9.0,14.0,52,0.00,CLR,,0.00,WeatherDisplay:10.37,2013-10-27 02:44:00,
2013-10-27 13:49:00,73.0,53.8,30.11,ESE,106,3.0,13.0,51,0.00,CLR,,0.00,WeatherDisplay:10.37,2013-10-27 02:49:00,
2013-10-27 13:54:00,73.0,53.8,30.11,East,101,8.0,16.0,51,0.00,CLR,,0.00,WeatherDisplay:10.37,2013-10-27 02:54:00,
2013-10-27 13:59:00,73.0,53.8,30.11,East,101,6.0,17.0,51,0.00,CLR,,0.00,WeatherDisplay:10.37,2013-10-27 02:59:00,
2013-10-27 14:04:00,72.7,53.5,30.10,ESE,102,8.0,17.0,51,0.00,CLR,,0.00,WeatherDisplay:10.37,2013-10-27 03:04:00,
2013-10-27 14:09:00,72.7,54.0,30.11,ESE,105,9.0,14.0,52,0.00,CLR,,0.00,WeatherDisplay:10.37,2013-10-27 03:09:00,
2013-10-27 14:14:00,72.5,53.9,30.10,ESE,103,7.0,15.0,52,0.00,CLR,,0.00,WeatherDisplay:10.37,2013-10-27 03:14:00,
2013-10-27 14:19:00,72.5,53.9,30.10,East,101,6.0,15.0,52,0.00,CLR,,0.00,WeatherDisplay:10.37,2013-10-27 03:19:00,
2013-10-27 14:24:00,72.5,53.9,30.10,ESE,108,7.0,12.0,52,0.00,CLR,,0.00,WeatherDisplay:10.37,2013-10-27 03:24:00,
2013-10-27 14:29:00,72.3,53.2,30.10,East,93,8.0,14.0,51,0.00,CLR,,0.00,WeatherDisplay:10.37,2013-10-27 03:29:00,
2013-10-27 14:34:00,72.5,54.3,30.10,East,95,8.0,15.0,53,0.00,CLR,,0.00,WeatherDisplay:10.37,2013-10-27 03:34:00,
2013-10-27 14:39:00,72.5,54.4,30.09,SE,125,9.0,17.0,53,0.00,CLR,,0.00,WeatherDisplay:10.37,2013-10-27 03:39:00,
2013-10-27 14:44:00,72.5,54.4,30.09,ESE,116,7.0,12.0,53,0.00,CLR,,0.00,WeatherDisplay:10.37,2013-10-27 03:44:00,
2013-10-27 14:49:00,72.5,53.9,30.09,ESE,109,9.0,13.0,52,0.00,CLR,,0.00,WeatherDisplay:10.37,2013-10-27 03:49:00,
2013-10-27 14:54:00,72.5,53.9,30.09,East,99,7.0,13.0,52,0.00,CLR,,0.00,WeatherDisplay:10.37,2013-10-27 03:54:00,
2013-10-27 14:59:00,72.5,53.9,30.09,East,94,5.0,15.0,52,0.00,CLR,,0.00,WeatherDisplay:10.37,2013-10-27 03:59:00,
2013-10-27 15:04:00,72.6,54.5,30.09,ESE,105,7.0,16.0,53,0.00,CLR,,0.00,WeatherDisplay:10.37,2013-10-27 04:04:00,
2013-10-27 15:09:00,72.7,54.6,30.09,ESE,113,9.0,13.0,53,0.00,CLR,,0.00,WeatherDisplay:10.37,2013-10-27 04:09:00,
2013-10-27 15:14:00,72.5,54.4,30.09,ESE,111,9.0,15.0,53,0.00,CLR,,0.00,WeatherDisplay:10.37,2013-10-27 04:14:00,
2013-10-27 15:19:00,72.3,54.2,30.09,ESE,115,9.0,16.0,53,0.00,CLR,,0.00,WeatherDisplay:10.37,2013-10-27 04:19:00,
2013-10-27 15:24:00,72.3,54.2,30.09,East,98,8.0,13.0,53,0.00,CLR,,0.00,WeatherDisplay:10.37,2013-10-27 04:24:00,
2013-10-27 15:29:00,72.3,54.2,30.09,East,99,6.0,13.0,53,0.00,CLR,,0.00,WeatherDisplay:10.37,2013-10-27 04:29:00,
2013-10-27 15:34:00,72.5,54.4,30.09,ESE,112,8.0,15.0,53,0.00,CLR,,0.00,WeatherDisplay:10.37,2013-10-27 04:34:00,
2013-10-27 15:39:00,72.5,54.4,30.09,ESE,104,8.0,13.0,53,0.00,CLR,,0.00,WeatherDisplay:10.37,2013-10-27 04:39:00,
2013-10-27 15:44:00,72.5,54.4,30.09,East,101,9.0,15.0,53,0.00,CLR,,0.00,WeatherDisplay:10.37,2013-10-27 04:44:00,
2013-10-27 15:49:00,72.5,53.8,30.08,East,98,8.0,12.0,52,0.00,CLR,,0.00,WeatherDisplay:10.37,2013-10-27 04:49:00,
2013-10-27 15:54:00,72.7,54.0,30.09,East,94,7.0,12.0,52,0.00,CLR,,0.00,WeatherDisplay:10.37,2013-10-27 04:54:00,
2013-10-27 15:59:00,72.7,54.0,30.09,East,94,9.0,14.0,52,0.00,CLR,,0.00,WeatherDisplay:10.37,2013-10-27 04:59:00,
2013-10-27 16:04:00,72.7,54.1,30.09,ESE,109,7.0,11.0,52,0.00,CLR,,0.00,WeatherDisplay:10.37,2013-10-27 05:04:00,
2013-10-27 16:09:00,72.9,54.2,30.09,ESE,113,9.0,17.0,52,0.00,CLR,,0.00,WeatherDisplay:10.37,2013-10-27 05:09:00,
2013-10-27 16:14:00,72.8,54.2,30.09,ESE,112,9.0,15.0,52,0.00,CLR,,0.00,WeatherDisplay:10.37,2013-10-27 05:14:00,
2013-10-27 16:19:00,72.9,54.8,30.09,ESE,103,5.0,12.0,53,0.00,CLR,,0.00,WeatherDisplay:10.37,2013-10-27 05:19:00,
2013-10-27 16:24:00,73.0,54.8,30.08,East,82,9.0,16.0,53,0.00,CLR,,0.00,WeatherDisplay:10.37,2013-10-27 05:24:00,
2013-10-27 16:29:00,72.7,54.6,30.08,East,96,7.0,13.0,53,0.00,CLR,,0.00,WeatherDisplay:10.37,2013-10-27 05:29:00,
2013-10-27 16:34:00,72.5,54.3,30.09,East,95,5.0,13.0,53,0.00,CLR,,0.00,WeatherDisplay:10.37,2013-10-27 05:34:00,
2013-10-27 16:39:00,72.3,54.2,30.08,East,95,6.0,12.0,53,0.00,CLR,,0.00,WeatherDisplay:10.37,2013-10-27 05:39:00,
2013-10-27 16:44:00,72.1,54.1,30.08,ESE,107,6.0,12.0,53,0.00,CLR,,0.00,WeatherDisplay:10.37,2013-10-27 05:44:00,
2013-10-27 16:49:00,72.0,53.9,30.08,ESE,113,6.0,12.0,53,0.00,CLR,,0.00,WeatherDisplay:10.37,2013-10-27 05:49:00,
2013-10-27 16:54:00,71.8,53.7,30.08,ESE,111,7.0,12.0,53,0.00,CLR,,0.00,WeatherDisplay:10.37,2013-10-27 05:54:00,
2013-10-27 16:59:00,71.4,53.9,30.08,East,96,6.0,13.0,54,0.00,CLR,,0.00,WeatherDisplay:10.37,2013-10-27 05:59:00,
2013-10-27 17:04:00,71.2,54.2,30.08,East,101,6.0,13.0,55,0.00,CLR,,0.00,WeatherDisplay:10.37,2013-10-27 06:04:00,
2013-10-27 17:09:00,70.7,54.3,30.08,ESE,106,8.0,12.0,56,0.00,CLR,,0.00,WeatherDisplay:10.37,2013-10-27 06:09:00,
2013-10-27 17:14:00,70.7,54.2,30.08,East,94,6.0,13.0,56,0.00,CLR,,0.00,WeatherDisplay:10.37,2013-10-27 06:14:00,
2013-10-27 17:19:00,70.4,54.5,30.08,East,87,6.0,15.0,57,0.00,CLR,,0.00,WeatherDisplay:10.37,2013-10-27 06:19:00,
2013-10-27 17:24:00,70.3,54.9,30.08,East,95,6.0,15.0,58,0.00,CLR,,0.00,WeatherDisplay:10.37,2013-10-27 06:24:00,
2013-10-27 17:29:00,70.2,54.7,30.08,East,80,6.0,15.0,58,0.00,CLR,,0.00,WeatherDisplay:10.37,2013-10-27 06:29:00,
2013-10-27 17:34:00,70.0,54.5,30.08,East,83,7.0,12.0,58,0.00,CLR,,0.00,WeatherDisplay:10.37,2013-10-27 06:34:00,
2013-10-27 17:39:00,69.9,54.5,30.08,East,96,6.0,12.0,58,0.00,CLR,,0.00,WeatherDisplay:10.37,2013-10-27 06:39:00,
2013-10-27 17:44:00,69.8,54.4,30.09,East,89,7.0,13.0,58,0.00,CLR,,0.00,WeatherDisplay:10.37,2013-10-27 06:44:00,
2013-10-27 17:49:00,69.6,54.7,30.09,ESE,102,7.0,14.0,59,0.00,CLR,,0.00,WeatherDisplay:10.37,2013-10-27 06:49:00,
2013-10-27 17:54:00,69.6,54.7,30.09,ESE,107,7.0,14.0,59,0.00,CLR,,0.00,WeatherDisplay:10.37,2013-10-27 06:54:00,
2013-10-27 17:59:00,69.6,54.7,30.09,East,99,7.0,14.0,59,0.00,CLR,,0.00,WeatherDisplay:10.37,2013-10-27 06:59:00,
2013-10-27 18:04:00,69.6,55.1,30.09,East,94,5.0,12.0,60,0.00,CLR,,0.00,WeatherDisplay:10.37,2013-10-27 07:04:00,
2013-10-27 18:09:00,69.6,55.1,30.09,ESE,103,3.0,13.0,60,0.00,CLR,,0.00,WeatherDisplay:10.37,2013-10-27 07:09:00,
2013-10-27 18:14:00,69.6,55.1,30.09,ESE,104,8.0,16.0,60,0.00,CLR,,0.00,WeatherDisplay:10.37,2013-10-27 07:14:00,
2013-10-27 18:19:00,69.6,55.1,30.09,East,91,3.0,12.0,60,0.00,CLR,,0.00,WeatherDisplay:10.37,2013-10-27 07:19:00,
2013-10-27 18:24:00,69.6,55.1,30.09,ENE,76,5.0,12.0,60,0.00,CLR,,0.00,WeatherDisplay:10.37,2013-10-27 07:24:00,
2013-10-27 18:29:00,69.6,55.1,30.09,East,86,7.0,12.0,60,0.00,CLR,,0.00,WeatherDisplay:10.37,2013-10-27 07:29:00,
2013-10-27 18:34:00,69.6,55.5,30.09,East,86,6.0,11.0,61,0.00,CLR,,0.00,WeatherDisplay:10.37,2013-10-27 07:34:00,
2013-10-27 18:39:00,69.6,55.6,30.09,East,99,3.0,9.0,61,0.00,CLR,,0.00,WeatherDisplay:10.37,2013-10-27 07:39:00,
2013-10-27 18:44:00,69.4,55.4,30.09,ESE,103,5.0,7.0,61,0.00,CLR,,0.00,WeatherDisplay:10.37,2013-10-27 07:44:00,
2013-10-27 18:49:00,69.4,55.4,30.10,ESE,106,2.0,7.0,61,0.00,CLR,,0.00,WeatherDisplay:10.37,2013-10-27 07:49:00,
2013-10-27 18:54:00,69.4,55.4,30.10,ESE,103,3.0,8.0,61,0.00,CLR,,0.00,WeatherDisplay:10.37,2013-10-27 07:54:00,
2013-10-27 18:59:00,69.4,55.4,30.10,ESE,111,3.0,6.0,61,0.00,CLR,,0.00,WeatherDisplay:10.37,2013-10-27 07:59:00,
2013-10-27 19:04:00,69.4,55.4,30.10,ESE,112,5.0,7.0,61,0.00,CLR,,0.00,WeatherDisplay:10.37,2013-10-27 08:04:00,
2013-10-27 19:14:00,69.1,55.1,30.11,ESE,111,5.0,6.0,61,0.00,CLR,,0.00,WeatherDisplay:10.37,2013-10-27 08:14:00,
2013-10-27 19:19:00,69.1,55.1,30.11,ESE,113,3.0,7.0,61,0.00,CLR,,0.00,WeatherDisplay:10.37,2013-10-27 08:19:00,
2013-10-27 19:24:00,69.1,55.1,30.11,ESE,111,2.0,7.0,61,0.00,CLR,,0.00,WeatherDisplay:10.37,2013-10-27 08:24:00,
2013-10-27 19:29:00,68.9,54.9,30.11,ESE,109,3.0,7.0,61,0.00,CLR,,0.00,WeatherDisplay:10.37,2013-10-27 08:29:00,
2013-10-27 19:34:00,68.9,55.3,30.12,ESE,115,3.0,6.0,62,0.00,CLR,,0.00,WeatherDisplay:10.37,2013-10-27 08:34:00,
2013-10-27 19:39:00,68.7,55.2,30.12,ESE,109,2.0,6.0,62,0.00,CLR,,0.00,WeatherDisplay:10.37,2013-10-27 08:39:00,
2013-10-27 19:44:00,68.7,55.2,30.12,ESE,108,1.0,7.0,62,0.00,CLR,,0.00,WeatherDisplay:10.37,2013-10-27 08:44:00,
2013-10-27 19:49:00,68.7,55.2,30.12,ESE,120,2.0,6.0,62,0.00,CLR,,0.00,WeatherDisplay:10.37,2013-10-27 08:49:00,
2013-10-27 19:54:00,68.7,55.2,30.12,ESE,111,2.0,5.0,62,0.00,CLR,,0.00,WeatherDisplay:10.37,2013-10-27 08:54:00,
2013-10-27 19:59:00,68.5,55.4,30.13,East,99,2.0,4.0,63,0.00,CLR,,0.00,WeatherDisplay:10.37,2013-10-27 08:59:00,
2013-10-27 20:04:00,68.5,55.4,30.12,ESE,108,1.0,5.0,63,0.00,CLR,,0.00,WeatherDisplay:10.37,2013-10-27 09:04:00,
2013-10-27 20:09:00,68.4,55.3,30.13,ESE,117,0.0,3.0,63,0.00,CLR,,0.00,WeatherDisplay:10.37,2013-10-27 09:09:00,
2013-10-27 20:14:00,68.2,55.1,30.13,ESE,119,1.0,5.0,63,0.00,CLR,,0.00,WeatherDisplay:10.37,2013-10-27 09:14:00,
2013-10-27 20:19:00,68.2,55.1,30.13,East,101,3.0,7.0,63,0.00,CLR,,0.00,WeatherDisplay:10.37,2013-10-27 09:19:00,
2013-10-27 20:24:00,68.2,55.1,30.13,ESE,103,1.0,7.0,63,0.00,CLR,,0.00,WeatherDisplay:10.37,2013-10-27 09:24:00,
2013-10-27 20:29:00,68.2,55.1,30.13,ESE,102,1.0,4.0,63,0.00,CLR,,0.00,WeatherDisplay:10.37,2013-10-27 09:29:00,
2013-10-27 20:34:00,68.0,54.9,30.13,East,96,2.0,6.0,63,0.00,CLR,,0.00,WeatherDisplay:10.37,2013-10-27 09:34:00,
2013-10-27 20:39:00,68.2,55.1,30.13,East,90,1.0,4.0,63,0.00,CLR,,0.00,WeatherDisplay:10.37,2013-10-27 09:39:00,
2013-10-27 20:44:00,68.0,54.9,30.13,East,89,2.0,4.0,63,0.00,CLR,,0.00,WeatherDisplay:10.37,2013-10-27 09:44:00,
2013-10-27 20:49:00,67.8,54.8,30.14,East,94,2.0,4.0,63,0.00,CLR,,0.00,WeatherDisplay:10.37,2013-10-27 09:49:00,
2013-10-27 20:54:00,67.8,54.8,30.14,ESE,104,2.0,5.0,63,0.00,CLR,,0.00,WeatherDisplay:10.37,2013-10-27 09:54:00,
2013-10-27 20:59:00,67.8,55.2,30.14,East,101,5.0,7.0,64,0.00,CLR,,0.00,WeatherDisplay:10.37,2013-10-27 09:59:00,
2013-10-27 21:04:00,67.8,54.8,30.14,ESE,106,2.0,5.0,63,0.00,CLR,,0.00,WeatherDisplay:10.37,2013-10-27 10:04:00,
2013-10-27 21:09:00,67.8,55.2,30.14,East,98,1.0,4.0,64,0.00,CLR,,0.00,WeatherDisplay:10.37,2013-10-27 10:09:00,
2013-10-27 21:14:00,67.8,55.2,30.14,ESE,112,2.0,5.0,64,0.00,CLR,,0.00,WeatherDisplay:10.37,2013-10-27 10:14:00,
2013-10-27 21:19:00,67.8,55.2,30.15,ESE,114,2.0,6.0,64,0.00,CLR,,0.00,WeatherDisplay:10.37,2013-10-27 10:19:00,
2013-10-27 21:24:00,67.8,55.2,30.15,ESE,106,3.0,5.0,64,0.00,CLR,,0.00,WeatherDisplay:10.37,2013-10-27 10:24:00,
2013-10-27 21:29:00,67.8,55.2,30.15,ESE,107,1.0,4.0,64,0.00,CLR,,0.00,WeatherDisplay:10.37,2013-10-27 10:29:00,
2013-10-27 21:34:00,67.8,55.1,30.15,ESE,112,1.0,3.0,64,0.00,CLR,,0.00,WeatherDisplay:10.37,2013-10-27 10:34:00,
2013-10-27 21:39:00,67.6,55.0,30.15,ESE,107,0.0,5.0,64,0.00,CLR,,0.00,WeatherDisplay:10.37,2013-10-27 10:39:00,
2013-10-27 21:44:00,67.6,55.0,30.15,ESE,104,1.0,3.0,64,0.00,CLR,,0.00,WeatherDisplay:10.37,2013-10-27 10:44:00,
2013-10-27 21:49:00,67.6,55.5,30.15,ESE,102,1.0,3.0,65,0.00,CLR,,0.00,WeatherDisplay:10.37,2013-10-27 10:49:00,
2013-10-27 21:54:00,67.5,55.4,30.15,ESE,103,1.0,2.0,65,0.00,CLR,,0.00,WeatherDisplay:10.37,2013-10-27 10:54:00,
2013-10-27 21:59:00,67.5,55.3,30.15,ESE,112,1.0,3.0,65,0.00,CLR,,0.00,WeatherDisplay:10.37,2013-10-27 10:59:00,
2013-10-27 22:04:00,67.5,55.3,30.15,ESE,110,3.0,5.0,65,0.00,CLR,,0.00,WeatherDisplay:10.37,2013-10-27 11:04:00,
2013-10-27 22:09:00,67.3,55.1,30.14,ESE,107,2.0,6.0,65,0.00,CLR,,0.00,WeatherDisplay:10.37,2013-10-27 11:09:00,
2013-10-27 22:14:00,67.3,55.1,30.14,ESE,109,1.0,5.0,65,0.00,CLR,,0.00,WeatherDisplay:10.37,2013-10-27 11:14:00,
2013-10-27 22:19:00,67.3,55.1,30.15,ESE,105,2.0,3.0,65,0.00,CLR,,0.00,WeatherDisplay:10.37,2013-10-27 11:19:00,
2013-10-27 22:24:00,67.1,54.9,30.15,East,99,0.0,2.0,65,0.00,CLR,,0.00,WeatherDisplay:10.37,2013-10-27 11:24:00,
2013-10-27 22:29:00,66.9,55.2,30.15,ESE,105,0.0,3.0,66,0.00,CLR,,0.00,WeatherDisplay:10.37,2013-10-27 11:29:00,
2013-10-27 22:34:00,66.9,55.2,30.15,East,94,0.0,3.0,66,0.00,CLR,,0.00,WeatherDisplay:10.37,2013-10-27 11:34:00,
2013-10-27 22:39:00,66.7,55.0,30.15,ESE,122,0.0,1.0,66,0.00,CLR,,0.00,WeatherDisplay:10.37,2013-10-27 11:39:00,
2013-10-27 22:44:00,66.7,55.0,30.15,SE,139,0.0,2.0,66,0.00,CLR,,0.00,WeatherDisplay:10.37,2013-10-27 11:44:00,
2013-10-27 22:49:00,66.6,55.3,30.15,ESE,122,0.0,2.0,67,0.00,CLR,,0.00,WeatherDisplay:10.37,2013-10-27 11:49:00,
2013-10-27 22:54:00,66.6,55.3,30.15,East,99,0.0,0.0,67,0.00,CLR,,0.00,WeatherDisplay:10.37,2013-10-27 11:54:00,
2013-10-27 22:59:00,66.2,55.0,30.15,East,84,0.0,1.0,67,0.00,CLR,,0.00,WeatherDisplay:10.37,2013-10-27 11:59:00,
2013-10-27 23:04:00,66.0,54.7,30.15,NE,47,0.0,0.0,67,0.00,CLR,,0.00,WeatherDisplay:10.37,2013-10-27 12:04:00,
2013-10-27 23:09:00,66.0,54.7,30.15,NE,45,0.0,0.0,67,0.00,CLR,,0.00,WeatherDisplay:10.37,2013-10-27 12:09:00,
2013-10-27 23:14:00,65.8,54.6,30.15,North,2,0.0,0.0,67,0.00,CLR,,0.00,WeatherDisplay:10.37,2013-10-27 12:14:00,
2013-10-27 23:19:00,65.7,54.9,30.15,NW,310,0.0,0.0,68,0.00,CLR,,0.00,WeatherDisplay:10.37,2013-10-27 12:19:00,
2013-10-27 23:24:00,65.7,54.8,30.15,NW,304,0.0,0.0,68,0.00,CLR,,0.00,WeatherDisplay:10.37,2013-10-27 12:24:00,
2013-10-27 23:29:00,65.5,54.6,30.15,NW,309,0.0,0.0,68,0.00,CLR,,0.00,WeatherDisplay:10.37,2013-10-27 12:29:00,
2013-10-27 23:34:00,65.5,54.6,30.15,NW,316,0.0,0.0,68,0.00,CLR,,0.00,WeatherDisplay:10.37,2013-10-27 12:34:00,
2013-10-27 23:39:00,65.3,54.4,30.16,NW,308,1.0,2.0,68,0.00,CLR,,0.00,WeatherDisplay:10.37,2013-10-27 12:39:00,
2013-10-27 23:44:00,65.1,54.7,30.16,NW,304,0.0,2.0,69,0.00,CLR,,0.00,WeatherDisplay:10.37,2013-10-27 12:44:00,
2013-10-27 23:49:00,64.9,54.5,30.16,WNW,287,0.0,0.0,69,0.00,CLR,,0.00,WeatherDisplay:10.37,2013-10-27 12:49:00,
2013-10-27 23:54:00,64.6,54.2,30.15,WNW,292,0.0,1.0,69,0.00,CLR,,0.00,WeatherDisplay:10.37,2013-10-27 12:54:00,
2013-10-27 23:59:00,64.6,54.6,30.15,WNW,284,0.0,0.0,70,0.00,CLR,,0.00,WeatherDisplay:10.37,2013-10-27 12:59:00,